Regional Weather Roundup
Issued by NWS Sioux Falls, SD

Home | Current Version | Previous Version | Graphics & Text | Print | Product List | Glossary On
Versions: 1 2 3 4 5 6 7 8 9 10 11 12 13 14 15 16 17 18 19 20 21 22 23 24 25 26 27 28 29 30 31 32 33 34 35 36 37 38 39 40 41 42 43 44 45 46 47 48 49 50
000
ASUS43 KFSD 170502
RWRFSD

WEATHER ROUNDUP FOR SE SOUTH DAKOTA/SW MINNESOTA/NW IOWA
NATIONAL WEATHER SERVICE SIOUX FALLS SD
1100 PM CST SAT DEC 16 2017

NOTE: "FAIR" INDICATES FEW OR NO CLOUDS BELOW 12,000 FEET WITH NO
SIGNIFICANT WEATHER AND OR OBSTRUCTIONS TO VISIBILITY.


SDZ038>040-050-052>070-170600-
SOUTHEAST SOUTH DAKOTA

CITY           SKY/WX    TMP DP  RH WIND       PRES   REMARKS
BROOKINGS      CLOUDY    31  29  92 NE7       30.06S WCI  24
CHAMBERLAIN    CLOUDY    35  33  92 N3        30.07S
HURON          CLOUDY    28  28 100 CALM      30.07F
MADISON        CLOUDY    32  32 100 NE7       30.06R WCI  26
MITCHELL       CLOUDY    31  30  96 N6        30.08R WCI  25
SIOUX FALLS    MOCLDY    28  27  96 N3        30.05R
WINNER         CLOUDY    36  31  82 N6        30.05S
YANKTON        PTCLDY    31  27  85 NE6       30.05S WCI  25
$$

MNZ071-072-080-081-089-090-097-098-170600-
SOUTHWEST MINNESOTA

CITY           SKY/WX    TMP DP  RH WIND       PRES   REMARKS
FAIRMONT       CLOUDY    28  26  92 NE10      30.06F FOG     WCI  19
JACKSON        CLOUDY    27  27 100 NE10      30.03F FOG     WCI  17
LUVERNE        PTCLDY    28  25  86 CALM      30.04S
MARSHALL       PTCLDY    25  22  88 CALM      30.09S
MONTEVIDEO     CLOUDY    27  25  93 CALM      30.10S
PIPESTONE      CLOUDY    25  23  93 NE3       30.04S FOG
REDWOOD FALLS  CLOUDY    28  26  92 E5        30.08F WCI  23
WINDOM         HAZE      25  16  68 NE10      30.04F VSB 1/2 WCI  15
WORTHINGTON    PTCLDY    23  22  96 NE6       30.04F WCI  16
$$

IAZ001>003-012>014-020>022-031-032-NEZ013-014-SDZ071-170600-
NORTHWEST IOWA

CITY           SKY/WX    TMP DP  RH WIND       PRES   REMARKS
ESTHERVILLE    FOG       26  26 100 NE10      30.04S VSB 1   WCI  16
LE MARS        PTCLDY    28  27  93 N7        30.04R WCI  21
ORANGE CITY    PTCLDY    30  28  93 NE3       30.03R
SHELDON        PTCLDY    25  25 100 NE6       30.02S WCI  18
SIOUX CITY     CLOUDY    33  28  81 NE9       30.02S WCI  25
SPENCER        PTCLDY    25  23  92 NE7       30.04R WCI  17
STORM LAKE     CLEAR     30  27  86 NE14      30.00F WCI  20
$$

ABBREVIATIONS USED IN REMARKS
   TC - TEMPERATURE IN CELSIUS
  WCI - WIND CHILL INDEX
   HX - HEAT INDEX
  VSB - VISIBILITY





USA.gov is the U.S. government's official web portal to all federal, state and local government web resources and services.